Starlink 33601

operational
NORAD ID: 62768 Int'l Des: 2025-015 Owner: SPXS Country: US Constellation: starlink
LEOCIRCULAR

About Starlink 33601

Description loading...

Live Position

Loading 3D Globe...

Upcoming Passes

Altitude History

Altitude vs Time

uPlot chart will show altitude changes over time

Two-Line Element Set

1 62768U 25015L 25306.40141924 .00022822 00000-0 77989-3 0 9992
2 62768 53.1598 193.6331 0001290 104.0115 256.1029 15.30217444 44994
Epoch: Nov 2, 2025 • Age: 15 hours

Current Status

Altitude 476.6 km
Velocity 7.63 km/s
Sub-Earth Point -5.10°S, 36.26°W
Launch Date Jan 21, 2025
Age 0.7 years
Type internet

Technical Details

Classification Payload
Mass 575.00 kg
Dry Mass 530.00 kg
Total Mass 575.00 kg
Length 0.30 m
Diameter 4.10 m
Span 29.00 m
Shape Box + pan
Manufacturer SPXS
Bus Type Starlink V2MO
Phase Status In Orbit
Owner/State SPXS/US

Large Constellations

Loading constellations...